Regional Weather Roundup
Issued by NWS State College, PA

Home | Current Version | Previous Version | Text Only | Print | Product List | Glossary Off
Versions: 1 2 3 4 5 6 7 8 9 10 11 12 13 14 15 16 17 18 19 20 21 22 23 24 25 26 27 28 29 30 31 32 33 34 35 36 37 38 39 40 41 42 43 44 45 46 47 48 49 50

000
ASUS41 KCTP 251010
RWRCTP

REGIONAL WEATHER ROUNDUP
NATIONAL WEATHER SERVICE STATE COLLEGE PA
600 AM EDT WED MAY 25 2016

Note: "fair" indicates few or no clouds below 12,000 feet with no
significant weather and/or obstructions to visibility.

* = STATION THAT DOES NOT REPORT PRECIPITATION /E.G. RAIN...SNOW...ETC/
    THUNDER OR FOG.

PAZ002>004-007>009-013>016-020>023-029>032-251100-
WESTERN PENNSYLVANIA

CITY           SKY/WX    TMP DP  RH WIND       PRES   REMARKS
ERIE           CLEAR     63  46  54 S7        30.07R
MEADVILLE      CLEAR     55  47  74 S6        30.12R
FRANKLIN*      CLEAR     55  45  67 SW7       30.15R
NEW CASTLE     FAIR      51  49  92 CALM      30.13R
BEAVER COUNTY  NOT AVBL
BUTLER*        CLEAR     52  46  82 CALM      30.17R
PITTSBURGH INT MOCLDY    59  48  67 CALM      30.14R
PITTSBURGH     CLEAR     56  49  77 S5        30.14R
INDIANA*       CLEAR     50  48  93 CALM      30.19R
LATROBE        CLEAR     50  50 100 CALM      30.16R FOG
WASHINGTON CO* CLEAR     48  46  93 CALM      30.16R
$$

PAZ004>006-010>012-017>019-024>028-033>037-041-042-045-046-049>053-251100-
CENTRAL PENNSYLVANIA

CITY           SKY/WX    TMP DP  RH WIND       PRES   REMARKS
BRADFORD       CLEAR     40  37  89 CALM      30.14R
DUBOIS         CLEAR     49  41  74 CALM      30.14R
CLEARFIELD     CLEAR     47  41  80 CALM      30.15R
JOHNSTOWN      CLEAR     56  44  64 SW7       30.17R
ALTOONA        CLEAR     57  47  69 SW7       30.15R
STATE COLLEGE  CLEAR     54  45  71 CALM      30.12S
WILLIAMSPORT   CLEAR     47  42  83 CALM      30.11R
SELINSGROVE    CLEAR     47  45  93 CALM      30.10R FOG
FT INDIANTOWN  CLEAR     48  48 100 N3        30.09R
CAPITAL CITY   CLEAR     60  48  64 NW5       30.09R
HARRISBURG     PTCLDY    58  49  72 NW6       30.08R
YORK           CLEAR     52  48  86 CALM      30.10R
$$

PAZ038>040-043-044-047-048-054-055-060>062-067>071-251100-
EASTERN PENNSYLVANIA

CITY           SKY/WX    TMP DP  RH WIND       PRES   REMARKS
SCRANTON       PTCLDY    50  42  74 E3        30.09R
MOUNT POCONO   CLEAR     39  39 100 W7        30.10R
ALLENTOWN      CLEAR     52  48  87 CALM      30.08R FOG
QUAKERTOWN*    SUNNY     46  46 100 CALM      30.08R
READING        CLEAR     52  49  89 CALM      30.08R FOG
LANCASTER      CLEAR     54  48  80 W3        30.09R
COATESVILLE    SUNNY     54  46  76 W8        30.10R
POTTSTOWN      CLEAR     49  48  97 CALM      30.09R FOG
BLUE BELL      CLEAR     50  50 100 CALM      30.07R
DOYLESTOWN     CLEAR     50  50 100 CALM      30.06R
WILLOW GROVE   NOT AVBL
NORTH PHILA    CLEAR     56  52  86 CALM      30.07R
PHILADELPHIA   PTCLDY    59  51  75 SW5       30.07R
$$




USA.gov is the U.S. government's official web portal to all federal, state and local government web resources and services.